QIANFAN-62

Satellite information

Favourite Embed

Satellite Type and Status

PAYLOADIN ORBIT

Key statistics

Satellite QIANFAN-62 at a glance.

Uptime

229

Days in orbit

Revolutions

≈ 13.5

Per day

Orbit

LEO

Low Earth Orbit

Inclination

89.0

Latest

Satellite identification and parameters

Extended collection of information and parameters for QIANFAN-62.

Object identification

Identified? True

Debris? False

Object name: QIANFAN-62

International designator: 2025-016H

Object number (NORAD): 62792

Object ID (CCSDS): 62792

Country: PEOPLES REPUBLIC OF CHINA (PRC)

Current information (Y/N): Y

RCS size: LARGE

Orbital parameters

Period: 106.591 minutes

Inclination: 88.9781 deg

SMA: 7446.85 km

Apoapsis: 1079.317 km

Periapsis: 1058.113 km

RAAN: 113.0149 deg

Eccentricy: 0.00142369

Argument of periapsis: 260.7779 deg

Mean anomaly: 99.1761 deg

Mean motion: 13.50964152 rev/day

Mean motion (dot): 0.00000127 rev/day2

B* drag term: 0.0001783479 1/REarth

Two-line elements (TLE)

Creation date: Sept. 8, 2025, 3:16 a.m.

Reference frame: TEME

Reference center: EARTH

Epoch: Sept. 7, 2025, 9:40 p.m. UTC

TLE line 0: 0 QIANFAN-62

TLE line 1: 1 62792U 25016H 25250.90312078 .00000127 00000-0 17835-3 0 9991

TLE line 2: 2 62792 88.9781 113.0149 0014237 260.7779 99.1761 13.50964152 34290

Live tracking on map

Real-time ground track for satellite QIANFAN-62.

In-orbit conjunctions

There are no conjunctions computed for QIANFAN-62, at the moment. Check back to stay up to date, as we update our databases every day.

Go to all conjunctions

Associated space launch

18 Low Earth Orbit communication satellites with Ku, Q and V band payloads for the G60 constellation operated by Shanghai Spacecom Satellite Technology (SSST) with funding backed by the Shanghai local government. Initial constellation will consist of 1296 satellites by 2027 with long term plans to expand it to 12000 satellites.

QIANFAN-62 was lifted into orbit during the mission ‘Long March 6A | G60 Polar Group 06’, on board a Long March 6A space rocket.

The launch took place on Jan. 23, 2025, 5:15 a.m. from Launch Complex 9A.

For more information about the launch, click the button.

Launch to space Long March 6A | G60 Polar Group 06
Long March 6A | G60 Polar Group 06

Agency: N/A

Status: Launch Successful

Launch date: Jan. 23, 2025, 5:15 a.m. UTC

Rocket: Long March 6A

Launch pad: Launch Complex 9A

Location: Taiyuan Satellite Launch Center, People's Republic of China

...

Latest news about this satellite

News about space launch
China launches fourth batch of Thousand Sails megaconstellation satellites

HELSINKI — China launched the fourth batch of 18 satellites for the Thousand Sails megaconstellation early Thursday using a Long March 6A rocket. The Long March 6A lifted off at […] The post China launches fourth batch of Thousand Sails megaconstellation...


Newsletter sign-up

Weekly statistics, charts and insights to help you stay on top of the space industry.